When you browse on this site, cookies collect data to enhance your experience and personalize the content and advertising you see.
Visit our Privacy Policy to learn more. By continuing to use the site, you agree to this use of cookies and data.
  • In Belgien
  • Länderverzeichnis
  • Für 7 Tage
  • Wassertemperatur
  • Wetterkarte
  • Widgets
  • user-avatar
    Anmelden

    Stündliche Wetter Moluprei

    Heute, 5 Juni, Freitag

    Zeit Temperatur Niederschläge Wind Luftdruck Luftfeuchtigkeit
    00:00 +29°C° 0 mm 2 m/S 755 mmHg 83%
    01:00 +28°C° 0 mm 1 m/S 755 mmHg 84%
    02:00 +28°C° 0 mm 1 m/S 755 mmHg 85%
    03:00 +28°C° 0 mm 1 m/S 755 mmHg 87%
    04:00 +28°C° 0 mm 1 m/S 754 mmHg 88%
    05:00 +28°C° 0 mm 1 m/S 755 mmHg 86%
    06:00 +29°C° 0 mm 1 m/S 755 mmHg 84%
    07:00 +29°C° 0 mm 2 m/S 755 mmHg 84%
    08:00 +30°C° 0 mm 2 m/S 755 mmHg 78%
    09:00 +32°C° 0 mm 2 m/S 755 mmHg 71%
    10:00 +34°C° 0 mm 2 m/S 755 mmHg 65%
    11:00 +35°C° 0.2 mm 3 m/S 755 mmHg 62%
    12:00 +36°C° 0.2 mm 3 m/S 755 mmHg 58%
    13:00 +36°C° 0.2 mm 3 m/S 754 mmHg 55%
    14:00 +36°C° 0.3 mm 3 m/S 754 mmHg 55%
    15:00 +36°C° 0.3 mm 3 m/S 753 mmHg 54%
    16:00 +37°C° 0.3 mm 3 m/S 752 mmHg 54%
    17:00 +35°C° 0.2 mm 3 m/S 753 mmHg 60%
    18:00 +34°C° 0.2 mm 3 m/S 753 mmHg 66%
    19:00 +31°C° 0.2 mm 3 m/S 754 mmHg 72%
    20:00 +31°C° 0 mm 3 m/S 754 mmHg 73%
    21:00 +30°C° 0 mm 3 m/S 754 mmHg 74%
    22:00 +29°C° 0 mm 3 m/S 755 mmHg 76%
    23:00 +29°C° 0 mm 3 m/S 755 mmHg 78%

    Morgen, 6 Juni, Samstag

    Zeit Temperatur Niederschläge Wind Luftdruck Luftfeuchtigkeit
    00:00 +29°C° 0 mm 2 m/S 754 mmHg 80%
    01:00 +29°C° 0 mm 2 m/S 754 mmHg 82%
    02:00 +28°C° 0 mm 2 m/S 754 mmHg 83%
    03:00 +28°C° 0 mm 2 m/S 753 mmHg 83%
    04:00 +28°C° 0 mm 2 m/S 753 mmHg 84%
    05:00 +28°C° 0 mm 2 m/S 753 mmHg 83%
    06:00 +29°C° 0 mm 2 m/S 754 mmHg 82%
    07:00 +29°C° 0 mm 2 m/S 754 mmHg 80%
    08:00 +31°C° 0 mm 3 m/S 754 mmHg 73%
    09:00 +34°C° 0 mm 3 m/S 755 mmHg 66%
    10:00 +36°C° 0 mm 4 m/S 755 mmHg 59%
    11:00 +37°C° 0.1 mm 4 m/S 754 mmHg 56%
    12:00 +37°C° 0.1 mm 4 m/S 754 mmHg 53%
    13:00 +38°C° 0.1 mm 4 m/S 754 mmHg 49%
    14:00 +38°C° 0.4 mm 4 m/S 753 mmHg 51%
    15:00 +37°C° 0.4 mm 4 m/S 752 mmHg 53%
    16:00 +37°C° 0.4 mm 5 m/S 752 mmHg 55%
    17:00 +35°C° 0.2 mm 4 m/S 752 mmHg 60%
    18:00 +34°C° 0.2 mm 4 m/S 753 mmHg 64%
    19:00 +32°C° 0.2 mm 4 m/S 753 mmHg 69%
    20:00 +32°C° 0 mm 4 m/S 754 mmHg 70%
    21:00 +30°C° 0 mm 4 m/S 754 mmHg 72%
    22:00 +30°C° 0 mm 4 m/S 755 mmHg 73%
    23:00 +30°C° 0 mm 4 m/S 755 mmHg 74%

    übermorgen, 7 Juni, Sonntag

    Zeit Temperatur Niederschläge Wind Luftdruck Luftfeuchtigkeit
    00:00 +29°C° 0 mm 4 m/S 754 mmHg 76%
    01:00 +29°C° 0 mm 4 m/S 754 mmHg 77%
    02:00 +29°C° 0 mm 3 m/S 754 mmHg 78%
    03:00 +29°C° 0 mm 3 m/S 754 mmHg 79%
    04:00 +29°C° 0 mm 3 m/S 753 mmHg 80%
    05:00 +29°C° 0 mm 3 m/S 754 mmHg 80%
    06:00 +29°C° 0 mm 3 m/S 754 mmHg 79%
    07:00 +30°C° 0 mm 3 m/S 754 mmHg 78%
    08:00 +32°C° 0 mm 4 m/S 755 mmHg 71%
    09:00 +34°C° 0 mm 4 m/S 755 mmHg 64%
    10:00 +36°C° 0 mm 4 m/S 755 mmHg 58%
    11:00 +36°C° 0.6 mm 5 m/S 754 mmHg 56%
    12:00 +37°C° 0.6 mm 5 m/S 754 mmHg 54%
    13:00 +37°C° 0.6 mm 5 m/S 753 mmHg 52%
    14:00 +37°C° 0 mm 5 m/S 753 mmHg 52%
    15:00 +37°C° 0 mm 4 m/S 752 mmHg 51%
    16:00 +37°C° 0 mm 4 m/S 752 mmHg 51%
    17:00 +35°C° 0 mm 4 m/S 752 mmHg 57%
    18:00 +33°C° 0 mm 4 m/S 752 mmHg 64%
    19:00 +32°C° 0 mm 4 m/S 753 mmHg 70%
    20:00 +30°C° 0 mm 4 m/S 753 mmHg 73%
    21:00 +30°C° 0 mm 4 m/S 754 mmHg 75%
    22:00 +30°C° 0 mm 4 m/S 755 mmHg 77%
    23:00 +29°C° 0 mm 3 m/S 755 mmHg 78%

    8 Juni, Montag

    Zeit Temperatur Niederschläge Wind Luftdruck Luftfeuchtigkeit
    00:00 +29°C° 0 mm 3 m/S 754 mmHg 78%
    01:00 +29°C° 0 mm 3 m/S 754 mmHg 79%
    02:00 +29°C° 0 mm 3 m/S 754 mmHg 80%
    03:00 +28°C° 0 mm 2 m/S 753 mmHg 81%
    04:00 +28°C° 0 mm 2 m/S 753 mmHg 81%
    05:00 +28°C° 0 mm 2 m/S 753 mmHg 81%
    06:00 +29°C° 0 mm 2 m/S 754 mmHg 80%
    07:00 +29°C° 0 mm 2 m/S 754 mmHg 79%
    08:00 +31°C° 0 mm 3 m/S 754 mmHg 72%
    09:00 +34°C° 0 mm 3 m/S 755 mmHg 64%
    10:00 +35°C° 0 mm 3 m/S 755 mmHg 57%
    11:00 +36°C° 0 mm 3 m/S 754 mmHg 54%
    12:00 +37°C° 0 mm 3 m/S 754 mmHg 51%
    13:00 +38°C° 0 mm 3 m/S 753 mmHg 48%
    14:00 +38°C° 0.1 mm 3 m/S 753 mmHg 49%
    15:00 +37°C° 0.1 mm 4 m/S 752 mmHg 50%
    16:00 +37°C° 0.1 mm 4 m/S 752 mmHg 52%
    17:00 +35°C° 0 mm 4 m/S 752 mmHg 57%
    18:00 +34°C° 0 mm 3 m/S 752 mmHg 63%
    19:00 +31°C° 0 mm 3 m/S 753 mmHg 68%
    20:00 +31°C° 0 mm 3 m/S 753 mmHg 71%
    21:00 +30°C° 0 mm 3 m/S 754 mmHg 73%
    22:00 +30°C° 0 mm 3 m/S 755 mmHg 75%
    23:00 +29°C° 0 mm 3 m/S 755 mmHg 76%

    9 Juni, Dienstag

    Zeit Temperatur Niederschläge Wind Luftdruck Luftfeuchtigkeit
    00:00 +29°C° 0 mm 3 m/S 755 mmHg 76%
    01:00 +29°C° 0 mm 3 m/S 754 mmHg 77%
    02:00 +29°C° 0 mm 3 m/S 754 mmHg 78%
    03:00 +28°C° 0 mm 2 m/S 754 mmHg 79%
    04:00 +28°C° 0 mm 2 m/S 753 mmHg 81%
    05:00 +28°C° 0 mm 2 m/S 754 mmHg 80%
    06:00 +29°C° 0 mm 2 m/S 754 mmHg 78%
    07:00 +29°C° 0 mm 1 m/S 754 mmHg 77%
    08:00 +31°C° 0 mm 2 m/S 754 mmHg 69%
    09:00 +34°C° 0 mm 2 m/S 755 mmHg 60%
    10:00 +36°C° 0 mm 2 m/S 755 mmHg 51%
    11:00 +37°C° 0 mm 2 m/S 755 mmHg 49%
    12:00 +38°C° 0 mm 3 m/S 754 mmHg 47%
    13:00 +38°C° 0 mm 3 m/S 754 mmHg 44%
    14:00 +38°C° 0 mm 3 m/S 753 mmHg 46%
    15:00 +37°C° 0 mm 4 m/S 753 mmHg 48%
    16:00 +37°C° 0 mm 4 m/S 752 mmHg 50%
    17:00 +35°C° 0.1 mm 3 m/S 752 mmHg 55%
    18:00 +34°C° 0.1 mm 3 m/S 753 mmHg 61%
    19:00 +32°C° 0.1 mm 2 m/S 753 mmHg 66%
    20:00 +31°C° 0 mm 2 m/S 753 mmHg 70%
    21:00 +30°C° 0 mm 2 m/S 754 mmHg 73%
    22:00 +30°C° 0 mm 2 m/S 755 mmHg 77%
    23:00 +29°C° 0 mm 2 m/S 754 mmHg 78%

    10 Juni, Mittwoch

    Zeit Temperatur Niederschläge Wind Luftdruck Luftfeuchtigkeit
    00:00 +29°C° 0 mm 2 m/S 754 mmHg 80%
    01:00 +28°C° 0 mm 2 m/S 754 mmHg 81%
    02:00 +28°C° 0 mm 2 m/S 754 mmHg 83%
    03:00 +28°C° 0 mm 2 m/S 753 mmHg 84%
    04:00 +27°C° 0 mm 2 m/S 753 mmHg 85%
    05:00 +28°C° 0 mm 2 m/S 754 mmHg 84%
    06:00 +28°C° 0 mm 2 m/S 754 mmHg 83%
    07:00 +29°C° 0 mm 2 m/S 754 mmHg 82%
    08:00 +31°C° 0 mm 2 m/S 755 mmHg 74%
    09:00 +34°C° 0 mm 2 m/S 755 mmHg 66%
    10:00 +35°C° 0 mm 2 m/S 755 mmHg 57%
    11:00 +37°C° 0 mm 2 m/S 755 mmHg 53%
    12:00 +38°C° 0 mm 2 m/S 754 mmHg 48%
    13:00 +39°C° 0 mm 3 m/S 754 mmHg 43%
    14:00 +38°C° 0 mm 3 m/S 753 mmHg 45%
    15:00 +38°C° 0 mm 3 m/S 753 mmHg 47%
    16:00 +37°C° 0 mm 3 m/S 752 mmHg 49%
    17:00 +36°C° 0.3 mm 3 m/S 753 mmHg 55%
    18:00 +34°C° 0.3 mm 2 m/S 753 mmHg 61%
    19:00 +32°C° 0.3 mm 2 m/S 753 mmHg 67%
    20:00 +31°C° 1.1 mm 2 m/S 754 mmHg 73%
    21:00 +30°C° 1.1 mm 2 m/S 755 mmHg 79%
    22:00 +29°C° 1.1 mm 2 m/S 755 mmHg 85%
    23:00 +29°C° 0 mm 2 m/S 755 mmHg 85%
    Mehr zeigen